Regional Weather Roundup
Issued by NWS Newport/Morehead, NC

Current Version | Previous Version | Text Only | Print | Product List | Glossary Off
Versions: 1 2 3 4 5 6 7 8 9 10 11 12 13 14 15 16 17 18 19 20 21 22 23 24 25 26 27 28 29 30 31 32 33 34 35 36 37 38 39 40 41 42 43 44 45 46 47 48 49 50
000 ASUS42 KMHX 121225 RWRMHX WEATHER ROUNDUP FOR EASTERN NORTH CAROLINA NATIONAL WEATHER SERVICE NEWPORT/MOREHEAD CITY NC 700 AM EST FRI FEB 12 2016 NOTE: "FAIR" INDICATES FEW OR NO CLOUDS BELOW 12,000 FEET WITH NO SIGNIFICANT WEATHER AND/OR OBSTRUCTIONS TO VISIBILITY NCZ015>017-031-032-045>047-102-103-121300- NORTH COAST CITY SKY/WX TMP DP RH WIND PRES REMARKS EDENTON CLOUDY 28 17 63 NE6 30.32R ELIZABETH CITY PTCLDY 26 16 65 N9 30.32S KITTY HAWK CLOUDY 31 18 58 CALM 30.30R MANTEO CLOUDY 31 20 63 NE7 30.31S $$ NCZ045>047-081-094-103-104-121300- CENTRAL COAST CITY SKY/WX TMP DP RH WIND PRES REMARKS FRISCO PTCLDY 35 21 56 NE10 30.28F SWANQUARTER N/A 30 N/A N/A NE2G9 30.27S $$ NCZ095-097-098-100-101-121300- SOUTHERN COAST CITY SKY/WX TMP DP RH WIND PRES REMARKS BEAUFORT CLOUDY 34 17 50 NE8 30.28S CEDAR ISLAND N/A 36 N/A N/A NE13G20 30.33S JACKSONVILLE CLOUDY 32 14 47 NE10 30.27S PINEY ISLAND CLOUDY N/A N/A N/A NE10 30.28S WILMINGTON CLOUDY 35 18 49 NE9 30.25S $$ NCZ011>013-027>030-043-044-078>080-089-090>093-098-121300- COASTAL PLAIN CITY SKY/WX TMP DP RH WIND PRES REMARKS AHOSKIE PTCLDY 23 9 55 N3 30.31F CLINTON CLOUDY 31 13 48 E3 30.28R ELIZABETHTOWN CLOUDY 31 12 46 E3 30.24F GOLDSBORO CLOUDY 28 12 50 NE10 30.27R WCI 19 GREENVILLE CLOUDY 30 14 51 NE5 30.31S HAVELOCK CLOUDY 32 17 54 NE8 30.28F KENANSVILLE CLOUDY 29 14 52 CALM 30.29R KINSTON CLOUDY 28 16 59 NE7 30.30S NEW BERN CLOUDY 29 17 61 E6 30.29F RICHLANDS MOCLDY 28 12 50 N8 30.28R ROCKY MOUNT CLOUDY 26 9 48 NE7 30.30R WASHINGTON CLOUDY 27 16 62 NE6 30.30F WHITEVILLE CLOUDY 33 16 49 NE6 30.23S $$ AMZ130-135-150-152-154-156-158-170-250-252-270-ANZ085-086-088-633-658-670-121300- MARINE OBSERVATIONS STATION/POSITION TIME TEMP WIND PRES WAVE SWELL AIR SEA DIR/SP/G HT/PER HT/PER (UTC) (F) (DEG/KT/KT) (MB) (FT/S) (FT/S) CHESAPEAKE LIGHT 1200 26 350/ 8/ 10 1027.4 64 E VA BEACH 1150 30 50 360/ 12/ 16 1026.0 4/ 7 3/ 7 DUCK 1200 31 20/ 11/ 14 1025.6 2 E DUCK 1211 43 N/A 3/ 6 OREGON INLET 1200 33 40 20/ 9/ 11 1026.3 13E OREGON INLT 1200 45 N/A 4/ 6 HATTERAS CG 1200 36 46 30/ 11/ 14 1024.7 DIAMOND BUOY 1150 40 60 20/ 14/ 17 1025.1 3/ 7 2/ 7 CAPE LOOKOUT NOT AVBL BEAUFORT LAB 1200 34 43 30/ 6/ 11 1024.1 30 SE NEW RVR IN 1208 46 58 1023.4 30 SE NEW RVR IN 1125 58 N/A 3/ 4 27 SE WRIGHTSVLE 1208 48 62 70/ 17/ 23 1021.0 5 SE WRIGHTSVLE 1108 43 50 60/ 19/ 25 1023.5 225 S CAPE HAT 1150 57 68 150/ 10/ 14 N/A 5/ 7 5/ 7 41 SE CHARLESTON 1150 59 69 230/ 16/ 19 1020.7 3/ 6 2/10 $$

USA.gov is the U.S. government's official web portal to all federal, state and local government web resources and services.